Weather Service Report


768 
ASUS42 KTBW 300016
RWRFL 
FLORIDA REGIONAL WEATHER ROUNDUP
NATIONAL WEATHER SERVICE TAMPA BAY RUSKIN FL
800 PM EDT FRI APR 29 2016

NOTE: "FAIR" INDICATES FEW OR NO CLOUDS BELOW 12,000 FEET WITH NO
SIGNIFICANT WEATHER AND/OR OBSTRUCTIONS TO VISIBILITY.

FLZ001>010-012>015-112-114-115-300100-
PANHANDLE FLORIDA
  
CITY           SKY/WX    TMP DP  RH WIND       PRES   REMARKS
PENSACOLA      CLOUDY    78  72  81 S8        29.92S                  
MILTON NAS     MOCLDY    77  70  79 S10       29.93                   
CRESTVIEW      CLEAR     80  64  58 S5        29.95R                  
DUKE FIELD     MOCLDY    79  67  66 S10       29.93R                  
VALPARAISO     MOCLDY    77  73  88 S7        29.93R                  
MARY ESTHER    PTCLDY    77  73  88 S8        29.92                   
PANAMA CITY    FAIR      77  72  84 S9        29.93R                  
TYNDALL AFB    MOCLDY    77  73  88 S8        29.94                   
APALACHICOLA   PTCLDY    77  75  93 S7        29.94R                  

STATION/POSITION SKY/WX   TEMP    WIND        PRES    WAVE   SWELL
                          AIR SEA DIR/SP/G            HT/PER HT/PER
                          (F)     (DEG/KT/KT) (MB)    (FT/S) (FT/S)
30.1N   87.6W              76 75  110/  8/  8 1012.1S   2/ 6   2/ 6
29.2N   88.2W              76 74  130/ 10/ 12 1011.5S
28.8N   86.0W              79 78  150/  8/  8 1013.4R   2/ 5   2/ 5
PANAMA CITY BEAC           77 78              1013.6F
TOWER C                    74     180/  8/  8 1014.5R
28.5N   84.5W              77 77  130/  4/  4 1013.5F   1/ 5   2/ 5

$$
FLZ011-016>038-118-127-128-134-139-239-300100-
NORTH FLORIDA
  
CITY           SKY/WX    TMP DP  RH WIND       PRES   REMARKS
MARIANNA       CLOUDY    80  70  71 W7        29.91S                  
TALLAHASSEE    CLOUDY    81  64  56 SW5       29.92R                  
PERRY          CLEAR     78  71  79 SW6       29.94R                  
LIVE OAK       FAIR      86  72  62 SW8       29.93S                  
CROSS CITY       N/A     79  68  69 W6        29.93R                  
LAKE CITY      FAIR      82  66  57 CALM      29.92S                  
GAINESVILLE    PTCLDY    80  65  59 SW7       29.92R THUNDER          
WILLISTON      FAIR      81  73  78 W7        29.94R                  
PALATKA        FAIR      81  72  74 E6        29.94R                  
MAYPORT NAS    CLEAR     75  71  87 SE8       29.94R                  
JACKSONVILLE   PTCLDY    79  69  71 SE10      29.93R                  
JAX NAS        PTCLDY    83  68  60 E12       29.94R                  
JAX CECIL      CLEAR     82  70  65 SE9       29.93R                  
FERNANDINA BEA FAIR      79  72  78 SE7       29.93R                  
ST AUGUSTINE   CLEAR     76  71  85 SE7       29.96R                  
PALM COAST     FAIR      75  71  87 E5        29.95R                  

STATION/POSITION SKY/WX   TEMP    WIND        PRES    WAVE   SWELL
                          AIR SEA DIR/SP/G            HT/PER HT/PER
                          (F)     (DEG/KT/KT) (MB)    (FT/S) (FT/S)
SHELL POINT                79     220/ 11/ 13 1011.9
KEATON BEACH               77     240/  8/  9 1013.4S
CEDAR KEY                  78     280/  6/  8 1014.0S
FERNANDINA                 79 76              1013.3R
30.7N   81.3W                 74                N/A     1/11
MAYPORT                    78 73              1013.5R
ST AUGUSTINE               73 74  160/  8/  8 1015.0R

$$
FLZ040-043>046-052-053-057-058-063-144-300100-
INTERIOR CENTRAL FLORIDA
  
CITY           SKY/WX    TMP DP  RH WIND       PRES   REMARKS
OCALA          CLOUDY    82  63  51 SW7       29.94R                  
THE VILLAGES     N/A     82  72  69 W5        29.83R                  
LEESBURG       CLEAR     83  66  56 E3        29.92R                  
SANFORD        PTCLDY    80  69  69 SE7       29.94R                  
ORLANDO EXEC   PTCLDY    84  71  65 E13       29.94R THUNDER          
ORLANDO INTL   MOCLDY    82  69  64 E13       29.94R THUNDER          
KISSIMMEE      PTCLDY    84  72  65 E12       29.93R                  
WINTER HAVEN   CLEAR     87  63  44 E7        29.93R                  
LAKELAND       PTCLDY    84  70  61 NW10      29.93R                  
BARTOW         FAIR      82  64  54 CALM      29.93R                  
OKEECHOBEE     CLEAR     77  70  78 SE8       29.94S                  

$$
FLZ041-047-054-059-064-141-147-300100-
EAST CENTRAL FLORIDA
  
CITY           SKY/WX    TMP DP  RH WIND       PRES   REMARKS
DAYTONA BEACH  PTCLDY    77  71  82 CALM      29.94R                  
DELAND           N/A     79  68  69 E7        29.95R                  
NEW SMYRNA BEA CLEAR     79  72  78 SE12      29.94S                  
JFK SPACE CTR  CLEAR     77  69  75 SE7       29.94R                  
TITUSVILLE     PTCLDY    79  73  83 E12       29.95R                  
CAPE CANAVERAL CLEAR     77  69  77 SE7       29.94R                  
PATRICK AFB    CLEAR     78  71  78 SE12      29.94R                  
MELBOURNE      CLEAR     79  67  66 SE12      29.94R                  
VERO BEACH     CLEAR     79  67  66 SE9       29.95S                  
FT PIERCE      CLEAR     77  67  71 E10       29.95R                  
STUART         CLEAR     81  68  65 SE8       29.96S                  

STATION/POSITION SKY/WX   TEMP    WIND        PRES    WAVE   SWELL
                          AIR SEA DIR/SP/G            HT/PER HT/PER
                          (F)     (DEG/KT/KT) (MB)    (FT/S) (FT/S)
28.5N   80.2W              79 79  110/  6/  8 1014.2R
28.9N   78.5W              77 77  220/  4/  6 1014.5F
TRIDENT PIER               79 80              1013.8R
28.4N   80.5W                 78                N/A     1/11
27.5N   80.2W                 79                N/A     2/11

$$
FLZ050-056-061-142-242-148-248-149-249-151-251-155-255-
160-260-300100-
WEST CENTRAL FLORIDA
  
CITY           SKY/WX    TMP DP  RH WIND       PRES   REMARKS
CRYSTAL RIVER  FAIR      79  70  73 NW5       29.94R                  
INVERNESS      FAIR      79  70  73 W3        29.94R                  
BROOKSVILLE    CLEAR     79  63  57 NW10      29.95R                  
ZEPHYRHILLS    FAIR      82  62  50 NW9       29.94R                  
CLEARWATER AIR FAIR      77  70  78 NW7       29.94R                  
ST PETE CLEARW CLEAR     79  67  66 NW9       29.93R                  
TAMPA INTL     PTCLDY    81  66  60 NW8       29.94R                  
TAMPA EXEC     CLEAR     82  66  57 NW5       29.94R                  
PLANT CITY     CLEAR     84  70  61 NW7       29.95R                  
MACDILL AFB    CLEAR     80  68  66 N6        29.93R                  
PETER O KNIGHT CLEAR     82  70  65 NW5       29.94R                  
ST PETERSBURG  CLEAR     81  64  56 NW9       29.92R                  
SARASOTA       CLEAR     80  69  69 NW10      29.92S                  
VENICE         NOT AVBL                                               

STATION/POSITION SKY/WX   TEMP    WIND        PRES    WAVE   SWELL
                          AIR SEA DIR/SP/G            HT/PER HT/PER
                          (F)     (DEG/KT/KT) (MB)    (FT/S) (FT/S)
27.3N   84.2W                 81                N/A     1/ 6
CLEARWATER BEACH           78 81              1013.5S
MIDDLE TAMPA BAY NOT AVBL
VENICE                     78 81  280/  7/  8 1013.5R

$$
FLZ066-069-070-075>078-162-262-165-265-300100-
SOUTHWEST FLORIDA AND KEYS
  
CITY           SKY/WX    TMP DP  RH WIND       PRES   REMARKS
PUNTA GORDA    LGT RAIN  74  72  93 NW9       29.94F                  
FT MYERS       CLOUDY    80  71  74 NW7       29.92R                  
SOUTHWEST INTL PTCLDY    80  71  74 NW5       29.93R                  
NAPLES         PTCLDY    79  72  79 W5        29.93R                  
MARCO ISLAND   CLEAR     81  66  61 S5        29.94R                  
MARATHON       PTCLDY    79  70  74 E7        29.93R                  
KEY WEST NAS   MOCLDY    79  69  71 E10       29.93S                  
KEY WEST INTL  PTCLDY    79  71  76 E10       29.93S                  

STATION/POSITION SKY/WX   TEMP    WIND        PRES    WAVE   SWELL
                          AIR SEA DIR/SP/G            HT/PER HT/PER
                          (F)     (DEG/KT/KT) (MB)    (FT/S) (FT/S)
NAPLES                        84              1013.2R
26.0N   85.6W              80 80  120/ 12/ 16 1012.6R   3/ 6   2/11
DRY TORTUGAS               78      80/  9/ 10 1013.0F
SAND KEY                   79     120/ 12/ 14 1013.7R
LONG KEY                   79 83  110/ 11/ 13 1014.2R
MOLASSES REEF              78 80  100/ 11/ 13 1014.0S

$$
FLZ067-068-071>074-168-172>174-300100-
SOUTHEAST FLORIDA 
  
CITY           SKY/WX    TMP DP  RH WIND       PRES   REMARKS
W PALM BEACH   PTCLDY    80  65  59 SE10      29.95S                  
BOCA RATON     CLEAR     79  68  69 SE13      29.95R                  
FT LAUDER-EXEC CLOUDY    79  66  64 SE12      29.95R                  
FT LAUDERDALE  MOCLDY    79  67  66 SE9       29.95R                  
POMPANO BEACH  CLOUDY    76  68  76 SE9       29.95R                  
PEMBROKE PINES CLEAR     80  67  64 SE9       29.96R                  
OPA LOCKA      CLEAR     79  68  69 SE12      29.95R                  
MIAMI          PTCLDY    78  67  68 SE10      29.95R                  
WEST KENDALL     N/A    N/A N/A N/A MISG      29.95R                  
HOMESTEAD      CLEAR     77  68  73 E5        29.95R                  

STATION/POSITION SKY/WX   TEMP    WIND        PRES    WAVE   SWELL
                          AIR SEA DIR/SP/G            HT/PER HT/PER
                          (F)     (DEG/KT/KT) (MB)    (FT/S) (FT/S)
PORT EVERGLADES            79     130/  6/  9 1014.3R
VIRGINIA KEY               79 82              1014.1S
LAKE WORTH                 79 81              1013.9R
SETTLEMENT POINT           78      80/ 10/ 11 1015.6R

$$

  

Return to Home page


Western Regional Climate Center, wrcc@dri.edu